DW8241 Weather Reports


Display with metric or nautical units.
time (UTC)temp
F
wind
direction
speed
MPH
gust
MPH
rain 1hr
in
rain 24hr
in
rain mn
in
humidity
%
barometer
mb
20260902130042 55 15 0.0 0.0 0.00 0.00 0.00 100 1014.0
20260902124540 54 16 0.0 2.0 0.00 0.00 0.00 100 1014.0
20260902123038 53 9 1.0 3.0 0.00 0.00 0.00 100 1013.8
20260902121539 51 25 0.0 0.0 0.00 0.00 0.00 99 1013.8
20260902120038 51 25 0.0 1.0 0.00 0.00 0.00 99 1013.7
20260902114537 51 25 0.0 1.0 0.00 0.00 0.00 99 1013.6
20260902113034 51 25 0.0 0.0 0.00 0.00 0.00 99 1013.5
20260902111533 51 25 0.0 0.0 0.00 0.00 0.00 99 1013.6
20260902110032 51 25 0.0 0.0 0.00 0.00 0.00 99 1013.5
20260902104534 51 25 0.0 0.0 0.00 0.00 0.00 99 1013.3
20260902103029 51 25 0.0 0.0 0.00 0.00 0.00 99 1013.3
20260902101529 51 25 0.0 0.0 0.00 0.00 0.00 99 1013.4
20260902100028 51 25 0.0 0.0 0.00 0.00 0.00 98 1013.4
20260902094526 51 25 0.0 1.0 0.00 0.00 0.00 98 1013.3
20260902093023 52 25 0.0 1.0 0.00 0.00 0.00 98 1013.2
20260902091522 52 25 0.0 0.0 0.00 0.00 0.00 97 1013.2
20260902090019 52 25 0.0 0.0 0.00 0.00 0.00 98 1013.0
20260902084522 53 25 0.0 1.0 0.00 0.00 0.00 98 1012.9
20260902083016 53 51 0.0 1.0 0.00 0.00 0.00 97 1012.9
20260902081514 54 51 0.0 0.0 0.00 0.00 0.00 97 1012.8
20260902080012 55 51 0.0 0.0 0.00 0.00 0.00 97 1012.7
20260902074511 55 51 0.0 0.0 0.00 0.00 0.00 98 1012.7
20260902073010 55 51 0.0 0.0 0.00 0.00 0.00 97 1012.7
20260902071514 55 51 0.0 1.0 0.00 0.00 0.00 96 1012.7
20260902070007 56 51 0.0 1.0 0.00 0.00 0.00 96 1012.8
20260902064511 57 51 0.0 1.0 0.00 0.00 0.00 96 1012.7
20260902063006 57 51 0.0 0.0 0.00 0.00 0.00 96 1012.7
20260902061600 58 51 0.0 0.0 0.00 0.00 0.00 95 1012.7
20260902060113 58 51 0.0 0.0 0.00 0.00 0.00 96 1012.7
20260902054609 58 51 0.0 1.0 0.00 0.00 0.00 95 1012.8
20260902053055 59 51 0.0 0.0 0.00 0.00 0.00 95 1012.9
20260902051558 59 51 0.0 1.0 0.00 0.00 0.00 94 1012.8
20260902050049 60 51 0.0 1.0 0.00 0.00 0.00 93 1012.8
20260902044548 61 51 0.0 1.0 0.00 0.00 0.00 91 1012.8
20260902043106 62 51 0.0 0.0 0.00 0.00 0.00 90 1012.7
20260902041601 62 51 0.0 0.0 0.00 0.00 0.00 88 1012.5
20260902040045 63 51 0.0 2.0 0.00 0.00 0.00 87 1012.4
20260902034550 63 51 0.0 1.0 0.00 0.00 0.00 86 1012.4
20260902033050 65 51 0.0 3.0 0.00 0.00 0.00 83 1012.3
20260902031543 66 30 2.0 4.0 0.00 0.00 0.00 82 1012.3
20260902030045 66 16 0.0 3.0 0.00 0.00 0.00 81 1012.2
20260902024548 66 27 0.0 1.0 0.00 0.00 0.00 81 1012.4
20260902023042 67 27 2.0 4.0 0.00 0.00 0.00 80 1012.3
20260902021542 65 243 0.0 2.0 0.00 0.00 0.00 82 1012.0
20260902020044 66 234 0.0 1.0 0.00 0.00 0.00 82 1011.8
20260902014550 67 234 0.0 1.0 0.00 0.00 0.00 81 1011.7
20260902013051 68 234 0.0 1.0 0.00 0.00 0.00 79 1011.4
20260902011540 69 234 1.0 2.0 0.00 0.00 0.00 78 1011.5
20260902010049 70 231 0.0 2.0 0.00 0.00 0.00 74 1011.5
20260902004539 72 258 1.0 2.0 0.00 0.00 0.00 69 1011.5
20260902003113 72 255 1.0 3.0 0.00 0.00 0.00 70 1011.4
20260902001538 74 257 1.0 3.0 0.00 0.00 0.00 66 1011.4
20260902000038 75 276 2.0 6.0 0.00 0.00 0.00 61 1011.5
20260901234539 76 288 2.0 7.0 0.00 0.00 0.00 60 1011.4
20260901233038 76 275 2.0 9.0 0.00 0.00 0.00 59 1011.4
20260901231542 77 316 5.0 11.0 0.00 0.00 0.00 57 1011.5
20260901230035 77 301 3.0 9.0 0.00 0.00 0.00 57 1011.5
20260901224534 78 302 4.0 9.0 0.00 0.00 0.00 56 1011.6
20260901223034 77 299 5.0 9.0 0.00 0.00 0.00 55 1011.7
20260901221539 78 333 4.0 10.0 0.00 0.00 0.00 55 1011.7
20260901220038 77 294 6.0 12.0 0.00 0.00 0.00 55 1011.8
20260901214530 78 316 5.0 10.0 0.00 0.00 0.00 56 1011.8
20260901213028 78 307 7.0 14.0 0.00 0.00 0.00 55 1011.6
20260901211528 78 340 5.0 11.0 0.00 0.00 0.00 53 1011.5
20260901210029 79 304 5.0 13.0 0.00 0.00 0.00 53 1011.5
20260901204528 79 295 6.0 12.0 0.00 0.00 0.00 52 1011.4
20260901203026 79 316 7.0 15.0 0.00 0.00 0.00 51 1011.4
20260901201524 79 318 7.0 15.0 0.00 0.00 0.00 53 1011.5
20260901200023 79 306 7.0 15.0 0.00 0.00 0.00 53 1011.6
20260901194522 80 336 6.0 13.0 0.00 0.00 0.00 54 1011.6
20260901193022 79 320 8.0 16.0 0.00 0.00 0.00 53 1011.8
20260901191530 79 294 8.0 15.0 0.00 0.00 0.00 54 1011.7
20260901190019 78 315 8.0 17.0 0.00 0.00 0.00 55 1011.7
20260901184517 78 297 9.0 15.0 0.00 0.00 0.00 54 1011.9
20260901183015 77 306 7.0 13.0 0.00 0.00 0.00 56 1011.9
20260901181515 77 314 9.0 15.0 0.00 0.00 0.00 56 1012.0
20260901180013 78 287 7.0 15.0 0.00 0.00 0.00 58 1012.1
20260901174511 77 331 7.0 15.0 0.00 0.00 0.00 58 1012.0
20260901173010 77 314 10.0 17.0 0.00 0.00 0.00 58 1012.1
20260901171509 76 328 9.0 16.0 0.00 0.00 0.00 60 1012.3
20260901170006 75 323 8.0 15.0 0.00 0.00 0.00 61 1012.2
20260901164504 75 324 9.0 16.0 0.00 0.00 0.00 62 1012.4
20260901163001 75 300 11.0 18.0 0.00 0.00 0.00 64 1012.2
20260901161605 74 319 9.0 14.0 0.00 0.00 0.00 65 1012.2
20260901160058 74 274 10.0 16.0 0.00 0.00 0.00 67 1012.3
20260901154557 73 326 9.0 16.0 0.00 0.00 0.00 67 1012.4
20260901153051 72 304 7.0 14.0 0.00 0.00 0.00 71 1012.6
20260901151548 71 255 9.0 14.0 0.00 0.00 0.00 73 1012.5
20260901150049 71 295 8.0 17.0 0.00 0.00 0.00 73 1012.4
20260901144543 70 288 7.0 14.0 0.00 0.00 0.00 74 1012.5
20260901143040 69 294 6.0 12.0 0.00 0.00 0.00 76 1012.4
20260901141537 68 297 6.0 10.0 0.00 0.00 0.00 77 1012.3
20260901140034 67 288 4.0 8.0 0.00 0.00 0.00 80 1012.2
20260901134529 65 290 4.0 7.0 0.00 0.00 0.00 81 1012.0
20260901133026 64 274 5.0 10.0 0.00 0.00 0.00 82 1012.0
20260901131523 63 263 3.0 6.0 0.00 0.00 0.00 85 1012.0